IVARAZ6 Weather Reports


Display with metric or nautical units.
time (UTC)temp
F
wind
direction
speed
MPH
gust
MPH
rain 1hr
in
rain 24hr
in
rain mn
in
humidity
%
barometer
mb
20260507220121 56 67 2.0 8.0 0.00 0.00 0.00 89 1011.9
20260507215618 56 50 5.0 7.0 0.00 0.00 0.00 90 1011.9
20260507215121 56 43 4.0 8.0 0.00 0.00 0.00 90 1011.9
20260507214618 56 49 7.0 8.0 0.00 0.00 0.00 89 1011.9
20260507214119 56 32 6.0 8.0 0.00 0.00 0.00 89 1011.9
20260507213618 56 88 5.0 9.0 0.00 0.00 0.00 89 1011.8
20260507213118 56 70 6.0 7.0 0.00 0.00 0.00 90 1011.7
20260507212618 56 67 4.0 8.0 0.00 0.00 0.00 90 1011.5
20260507212121 56 80 7.0 8.0 0.00 0.00 0.00 89 1011.6
20260507211624 57 57 4.0 7.0 0.00 0.00 0.00 89 1011.6
20260507211121 57 51 4.0 7.0 0.00 0.00 0.00 90 1011.6
20260507210621 57 56 4.0 6.0 0.00 0.00 0.00 89 1011.7
20260507210118 57 68 5.0 6.0 0.00 0.00 0.00 89 1011.7
20260507205618 57 45 3.0 8.0 0.00 0.00 0.00 89 1011.7
20260507205119 57 72 5.0 8.0 0.00 0.00 0.00 90 1011.7
20260507204618 57 44 4.0 5.0 0.00 0.00 0.00 90 1011.7
20260507204124 57 52 5.0 5.0 0.00 0.00 0.00 90 1011.7
20260507203621 58 44 3.0 5.0 0.00 0.00 0.00 89 1011.7
20260507203119 58 65 3.0 3.0 0.00 0.00 0.00 89 1011.7
20260507202621 58 17 2.0 4.0 0.00 0.00 0.00 89 1011.7
20260507202118 58 49 2.0 3.0 0.00 0.00 0.00 89 1011.6
20260507201619 58 62 2.0 5.0 0.00 0.00 0.00 89 1011.6
20260507201118 58 71 4.0 5.0 0.00 0.00 0.00 89 1011.5
20260507200618 58 71 3.0 4.0 0.00 0.00 0.00 89 1011.4
20260507200118 59 58 3.0 3.0 0.00 0.00 0.00 89 1011.4
20260507195618 59 56 1.0 3.0 0.00 0.00 0.00 89 1011.4
20260507195121 59 61 2.0 2.0 0.00 0.00 0.00 89 1011.3
20260507194621 59 49 2.0 3.0 0.00 0.00 0.00 89 1011.3
20260507194121 59 43 2.0 3.0 0.00 0.00 0.00 89 1011.3
20260507193621 59 37 2.0 4.0 0.00 0.00 0.00 89 1011.2
20260507193118 59 50 3.0 4.0 0.00 0.00 0.00 89 1011.2
20260507192621 59 51 2.0 3.0 0.00 0.00 0.00 88 1011.2
20260507192119 60 38 2.0 3.0 0.00 0.00 0.00 88 1011.2
20260507191619 60 56 1.0 3.0 0.00 0.00 0.00 88 1011.2
20260507191118 60 18 2.0 3.0 0.00 0.00 0.00 87 1011.2
20260507190618 61 75 1.0 4.0 0.00 0.00 0.00 86 1011.2
20260507190119 61 0 3.0 3.0 0.00 0.00 0.00 86 1011.1
20260507185618 61 49 2.0 3.0 0.00 0.00 0.00 85 1011.1
20260507185121 62 65 1.0 3.0 0.00 0.00 0.00 85 1011.1
20260507184618 62 50 1.0 3.0 0.00 0.00 0.00 84 1011.1
20260507184118 62 60 2.0 3.0 0.00 0.00 0.00 84 1011.1
20260507183618 62 62 3.0 3.0 0.00 0.00 0.00 83 1011.1
20260507183118 63 24 1.0 2.0 0.00 0.00 0.00 83 1011.1
20260507182618 63 23 1.0 2.0 0.00 0.00 0.00 83 1011.1
20260507182118 63 13 2.0 2.0 0.00 0.00 0.00 83 1011.2
20260507181621 63 13 2.0 3.0 0.00 0.00 0.00 82 1011.2
20260507181118 63 22 1.0 3.0 0.00 0.00 0.00 82 1011.2
20260507180618 63 47 1.0 3.0 0.00 0.00 0.00 82 1011.0
20260507180121 63 15 1.0 2.0 0.00 0.00 0.00 82 1011.0
20260507175624 63 17 1.0 3.0 0.00 0.00 0.00 82 1011.0
20260507175118 64 30 1.0 5.0 0.00 0.00 0.00 81 1011.1
20260507174621 64 17 1.0 3.0 0.00 0.00 0.00 81 1011.1
20260507174118 64 123 1.0 3.0 0.00 0.00 0.00 81 1011.1
20260507173618 64 5 2.0 4.0 0.00 0.00 0.00 82 1011.1
20260507173118 64 355 1.0 3.0 0.00 0.00 0.00 81 1011.1
20260507172619 64 13 2.0 4.0 0.00 0.00 0.00 81 1011.0
20260507172118 64 42 2.0 7.0 0.00 0.00 0.00 81 1011.0
20260507171619 65 104 2.0 7.0 0.00 0.00 0.00 80 1011.0
20260507171121 65 305 2.0 5.0 0.00 0.00 0.00 80 1011.2
20260507170618 65 288 2.0 6.0 0.00 0.00 0.00 81 1011.2
20260507170121 65 264 4.0 5.0 0.00 0.00 0.00 81 1011.1
20260507165621 65 14 1.0 5.0 0.00 0.00 0.00 80 1011.0
20260507165124 65 73 3.0 5.0 0.00 0.00 0.00 80 1010.9
20260507164619 65 78 2.0 7.0 0.00 0.00 0.00 79 1010.9
20260507164118 66 0 2.0 7.0 0.00 0.00 0.00 79 1010.8
20260507163618 66 72 3.0 6.0 0.00 0.00 0.00 77 1010.8
20260507163118 67 97 2.0 7.0 0.00 0.00 0.00 77 1010.8
20260507162618 67 316 2.0 6.0 0.00 0.00 0.00 78 1010.9
20260507162127 66 263 3.0 5.0 0.00 0.00 0.00 78 1010.8
20260507161624 67 59 2.0 7.0 0.00 0.00 0.00 76 1010.9
20260507161118 67 49 3.0 6.0 0.00 0.00 0.00 78 1010.9
20260507160618 67 309 2.0 7.0 0.00 0.00 0.00 78 1010.8
20260507160118 67 11 3.0 4.0 0.00 0.00 0.00 78 1010.7
20260507155621 67 238 2.0 7.0 0.00 0.00 0.00 78 1010.7
20260507155121 67 90 0.0 8.0 0.00 0.00 0.00 77 1010.7
20260507154618 67 94 1.0 6.0 0.00 0.00 0.00 76 1010.6
20260507154118 68 106 4.0 6.0 0.00 0.00 0.00 75 1010.7
20260507153621 68 10 1.0 5.0 0.00 0.00 0.00 76 1010.8
20260507153118 67 325 4.0 7.0 0.00 0.00 0.00 75 1010.8
20260507152618 67 180 2.0 9.0 0.00 0.00 0.00 76 1010.7
20260507152121 66 126 3.0 6.0 0.00 0.00 0.00 76 1010.8
20260507151618 66 262 2.0 7.0 0.00 0.00 0.00 77 1010.7
20260507151121 67 19 3.0 7.0 0.00 0.00 0.00 76 1010.8
20260507150618 66 49 1.0 10.0 0.00 0.00 0.00 76 1010.9
20260507150124 67 31 3.0 10.0 0.00 0.00 0.00 75 1010.9
20260507145621 67 200 1.0 6.0 0.00 0.00 0.00 75 1010.9
20260507145121 67 224 1.0 6.0 0.00 0.00 0.00 77 1010.8
20260507144618 67 336 3.0 8.0 0.00 0.00 0.00 77 1010.9
20260507144124 67 250 4.0 6.0 0.00 0.00 0.00 77 1010.7
20260507143618 66 175 3.0 9.0 0.00 0.00 0.00 76 1010.7
20260507143121 66 88 2.0 9.0 0.00 0.00 0.00 75 1010.9
20260507142618 67 170 2.0 10.0 0.00 0.00 0.00 74 1010.9
20260507142119 67 333 2.0 7.0 0.00 0.00 0.00 74 1010.9
20260507141619 67 34 6.0 10.0 0.00 0.00 0.00 74 1011.0
20260507141118 67 305 7.0 9.0 0.00 0.00 0.00 74 1011.0
20260507140618 68 17 3.0 8.0 0.00 0.00 0.00 74 1011.0
20260507140124 68 250 2.0 9.0 0.00 0.00 0.00 74 1011.0
20260507135624 68 38 4.0 8.0 0.00 0.00 0.00 75 1011.0
20260507135118 68 329 1.0 7.0 0.00 0.00 0.00 75 1011.1
20260507134621 67 63 3.0 8.0 0.00 0.00 0.00 76 1011.1
20260507134124 67 5 5.0 10.0 0.00 0.00 0.00 76 1011.1
20260507133621 67 121 1.0 11.0 0.00 0.00 0.00 75 1011.1
20260507133118 67 290 4.0 8.0 0.00 0.00 0.00 75 1011.2
20260507132624 67 337 2.0 8.0 0.00 0.00 0.00 75 1011.2
20260507132118 67 17 0.0 9.0 0.00 0.00 0.00 75 1011.2
20260507131619 67 213 3.0 8.0 0.00 0.00 0.00 76 1011.2
20260507131118 67 98 2.0 7.0 0.00 0.00 0.00 76 1011.2
20260507130621 67 9 4.0 9.0 0.00 0.00 0.00 75 1011.2
20260507130118 67 344 4.0 9.0 0.00 0.00 0.00 76 1011.0
20260507125622 67 33 4.0 10.0 0.00 0.00 0.00 75 1011.0
20260507125118 67 66 2.0 10.0 0.00 0.00 0.00 76 1011.0
20260507124621 67 46 4.0 11.0 0.00 0.00 0.00 75 1011.1
20260507124118 66 46 0.0 9.0 0.00 0.00 0.00 75 1011.0
20260507123624 66 219 3.0 10.0 0.00 0.00 0.00 75 1011.0
20260507123121 66 5 5.0 13.0 0.00 0.00 0.00 74 1011.0
20260507122624 67 78 7.0 10.0 0.00 0.00 0.00 74 1010.9
20260507122127 67 199 2.0 13.0 0.00 0.00 0.00 75 1010.9
20260507121624 67 70 8.0 13.0 0.00 0.00 0.00 74 1010.8
20260507121118 67 227 2.0 11.0 0.00 0.00 0.00 74 1010.9
20260507120618 67 249 3.0 12.0 0.00 0.00 0.00 74 1010.8
20260507120121 67 35 10.0 12.0 0.00 0.00 0.00 74 1010.9
20260507115627 67 28 2.0 9.0 0.00 0.00 0.00 73 1010.9
20260507115118 67 355 4.0 9.0 0.00 0.00 0.00 73 1011.0
20260507114628 67 272 6.0 9.0 0.00 0.00 0.00 73 1010.9
20260507114121 67 321 4.0 9.0 0.00 0.00 0.00 72 1011.1
20260507113624 68 15 3.0 11.0 0.00 0.00 0.00 72 1011.2
20260507113124 68 349 5.0 8.0 0.00 0.00 0.00 70 1011.3
20260507112618 68 219 2.0 6.0 0.00 0.00 0.00 71 1011.2
20260507112118 68 13 2.0 7.0 0.00 0.00 0.00 70 1011.2
20260507111624 68 321 3.0 7.0 0.00 0.00 0.00 70 1011.2
20260507111121 68 309 1.0 9.0 0.00 0.00 0.00 71 1011.2
20260507110618 68 97 2.0 9.0 0.00 0.00 0.00 71 1011.3
20260507110118 68 239 3.0 8.0 0.00 0.00 0.00 72 1011.3
20260507105618 68 134 2.0 9.0 0.00 0.00 0.00 71 1011.3
20260507105118 68 317 2.0 10.0 0.00 0.00 0.00 72 1011.3
20260507104621 68 258 4.0 8.0 0.00 0.00 0.00 72 1011.3
20260507104124 67 255 3.0 6.0 0.00 0.00 0.00 74 1011.3
20260507103621 66 242 3.0 9.0 0.00 0.00 0.00 75 1011.4
20260507103121 66 227 4.0 8.0 0.00 0.00 0.00 75 1011.4
20260507102624 66 315 1.0 8.0 0.00 0.00 0.00 75 1011.4
20260507102121 66 80 3.0 9.0 0.00 0.00 0.00 76 1011.5
20260507101618 65 72 0.0 6.0 0.00 0.00 0.00 77 1011.4
20260507101121 65 136 3.0 9.0 0.00 0.00 0.00 78 1011.3
20260507100621 64 321 4.0 8.0 0.00 0.00 0.00 78 1011.4
20260507100121 63 213 3.0 6.0 0.00 0.00 0.00 82 1011.4
20260507095621 62 76 0.0 4.0 0.00 0.00 0.00 84 1011.4
20260507095118 62 87 2.0 3.0 0.00 0.00 0.00 84 1011.4
20260507094618 62 65 3.0 5.0 0.00 0.00 0.00 84 1011.4
20260507094118 61 38 2.0 4.0 0.00 0.00 0.00 85 1011.5
20260507093618 61 22 3.0 5.0 0.00 0.00 0.00 84 1011.5
20260507093118 61 59 3.0 5.0 0.00 0.00 0.00 83 1011.4
20260507092621 62 67 4.0 5.0 0.00 0.00 0.00 82 1011.4
20260507092118 63 60 2.0 5.0 0.00 0.00 0.00 80 1011.3
20260507091618 64 37 3.0 4.0 0.00 0.00 0.00 78 1011.3
20260507091118 64 32 1.0 8.0 0.00 0.00 0.00 77 1011.2
20260507090618 65 59 4.0 9.0 0.00 0.00 0.00 75 1011.2
20260507090119 65 144 3.0 9.0 0.00 0.00 0.00 75 1011.2
20260507085618 66 206 5.0 9.0 0.00 0.00 0.00 75 1011.1
20260507085118 65 187 1.0 7.0 0.00 0.00 0.00 76 1011.0
20260507084627 65 24 1.0 9.0 0.00 0.00 0.00 77 1011.0
20260507084118 65 40 7.0 9.0 0.00 0.00 0.00 77 1010.9
20260507083621 65 341 5.0 9.0 0.00 0.00 0.00 79 1010.7
20260507083121 65 296 5.0 9.0 0.00 0.00 0.00 79 1010.6
20260507082618 65 311 2.0 9.0 0.00 0.00 0.00 79 1010.7
20260507082118 65 335 6.0 9.0 0.00 0.00 0.00 79 1010.7
20260507081618 65 346 3.0 9.0 0.00 0.00 0.00 79 1010.7
20260507081118 65 294 4.0 7.0 0.00 0.00 0.00 79 1010.6
20260507080621 65 321 3.0 10.0 0.00 0.00 0.00 78 1010.6
20260507080118 65 284 2.0 7.0 0.00 0.00 0.00 78 1010.5
20260507075618 65 256 2.0 6.0 0.00 0.00 0.00 77 1010.5
20260507075118 65 327 2.0 6.0 0.00 0.00 0.00 78 1010.4
20260507074621 65 19 1.0 6.0 0.00 0.00 0.00 78 1010.5
20260507074118 65 62 2.0 6.0 0.00 0.00 0.00 78 1010.4
20260507073618 65 346 4.0 8.0 0.00 0.00 0.00 77 1010.4
20260507073124 65 336 3.0 6.0 0.00 0.00 0.00 77 1010.4
20260507072621 65 286 2.0 6.0 0.00 0.00 0.00 77 1010.5
20260507072121 65 319 5.0 8.0 0.00 0.00 0.00 78 1010.3
20260507071621 65 317 3.0 5.0 0.00 0.00 0.00 77 1010.4
20260507071118 65 317 2.0 8.0 0.00 0.00 0.00 77 1010.3
20260507070618 65 205 4.0 4.0 0.00 0.00 0.00 77 1010.3
20260507070124 65 12 1.0 6.0 0.00 0.00 0.00 78 1010.2
20260507065618 65 355 1.0 7.0 0.00 0.00 0.00 78 1010.1
20260507065121 65 275 4.0 6.0 0.00 0.00 0.00 79 1010.1
20260507064618 64 198 1.0 7.0 0.00 0.00 0.00 79 1010.0
20260507064121 64 0 5.0 6.0 0.00 0.00 0.00 79 1010.0
20260507063621 63 336 5.0 5.0 0.00 0.00 0.00 79 1010.0
20260507063118 63 315 3.0 8.0 0.00 0.00 0.00 80 1009.9
20260507062619 63 343 4.0 6.0 0.00 0.00 0.00 79 1010.0
20260507062124 63 228 2.0 5.0 0.00 0.00 0.00 79 1009.9
20260507061624 63 29 1.0 7.0 0.00 0.00 0.00 79 1009.9
20260507061118 63 0 2.0 5.0 0.00 0.00 0.00 80 1009.8
20260507060618 63 327 3.0 4.0 0.00 0.00 0.00 80 1009.7
20260507060118 63 339 2.0 4.0 0.00 0.00 0.00 80 1009.8
20260507055618 63 340 3.0 6.0 0.00 0.02 0.00 80 1009.7
20260507055127 63 0 1.0 8.0 0.00 0.03 0.00 80 1009.7
20260507054621 63 300 5.0 7.0 0.00 0.04 0.00 80 1009.7
20260507054118 63 301 1.0 6.0 0.00 0.05 0.00 81 1009.7
20260507053618 63 273 2.0 6.0 0.00 0.07 0.00 81 1009.6
20260507053121 62 24 3.0 4.0 0.00 0.11 0.00 82 1009.5
20260507052618 62 74 2.0 7.0 0.00 0.11 0.00 82 1009.4
20260507052118 62 5 1.0 4.0 0.00 0.12 0.00 83 1009.4
20260507051621 62 0 1.0 4.0 0.00 0.14 0.00 83 1009.3
20260507051125 62 5 2.0 5.0 0.00 0.16 0.00 83 1009.2
20260507050621 61 345 2.0 4.0 0.00 0.18 0.00 84 1009.2
20260507050124 61 5 1.0 3.0 0.00 0.18 0.00 85 1009.1
20260507045618 61 338 3.0 3.0 0.00 0.18 0.00 85 1009.0
20260507045121 61 46 1.0 2.0 0.00 0.18 0.00 85 1009.1
20260507044618 61 48 0.0 3.0 0.00 0.18 0.00 85 1009.0
20260507044118 61 37 0.0 3.0 0.00 0.18 0.00 85 1009.0
20260507043618 61 51 0.0 2.0 0.00 0.18 0.00 85 1009.0
20260507043118 61 62 2.0 3.0 0.00 0.18 0.00 85 1009.0
20260507042618 61 25 1.0 2.0 0.00 0.18 0.00 85 1008.9
20260507042118 61 0 1.0 3.0 0.00 0.18 0.00 85 1008.9
20260507041618 61 52 2.0 3.0 0.00 0.18 0.00 86 1008.9
20260507041118 61 51 0.0 2.0 0.00 0.18 0.00 86 1008.9
20260507040618 61 51 0.0 3.0 0.00 0.18 0.00 86 1008.8
20260507040124 61 74 2.0 4.0 0.00 0.18 0.00 86 1008.8
20260507035618 61 48 3.0 3.0 0.00 0.18 0.00 86 1008.9
20260507035118 61 40 2.0 3.0 0.00 0.18 0.00 86 1008.9
20260507034624 61 40 0.0 4.0 0.00 0.18 0.00 86 1008.8
20260507034118 61 23 0.0 3.0 0.00 0.18 0.00 86 1008.8
20260507033618 61 346 1.0 3.0 0.00 0.18 0.00 86 1008.7
20260507033121 61 334 1.0 3.0 0.00 0.18 0.00 86 1008.6
20260507032624 61 29 2.0 3.0 0.00 0.18 0.00 86 1008.6
20260507032118 62 45 2.0 5.0 0.00 0.18 0.00 85 1008.6
20260507031618 62 57 4.0 4.0 0.00 0.18 0.00 85 1008.6
20260507031121 62 67 1.0 3.0 0.00 0.18 0.00 86 1008.7
20260507030618 62 66 2.0 4.0 0.00 0.18 0.00 86 1008.8
20260507030118 62 26 1.0 4.0 0.00 0.18 0.00 86 1008.8
20260507025621 62 38 4.0 4.0 0.00 0.18 0.00 86 1008.8
20260507025121 62 38 1.0 3.0 0.00 0.18 0.00 87 1008.7
20260507024619 62 61 0.0 3.0 0.00 0.18 0.00 87 1008.7
20260507024118 62 28 1.0 1.0 0.00 0.18 0.00 87 1008.7
20260507023618 62 28 1.0 3.0 0.00 0.18 0.00 87 1008.7
20260507023124 62 54 2.0 3.0 0.00 0.18 0.00 87 1008.7
20260507022621 62 74 2.0 6.0 0.00 0.18 0.00 86 1008.7
20260507022121 61 24 5.0 5.0 0.00 0.18 0.00 88 1008.7
20260507021618 61 50 1.0 2.0 0.00 0.18 0.00 88 1008.6
20260507021118 61 50 2.0 4.0 0.00 0.19 0.00 87 1008.6
20260507020618 61 42 2.0 4.0 0.00 0.19 0.00 87 1008.7
20260507020118 62 62 1.0 3.0 0.00 0.19 0.00 87 1008.6
20260507015618 62 27 0.0 3.0 0.00 0.20 0.00 87 1008.6
20260507015121 62 21 1.0 2.0 0.00 0.20 0.00 88 1008.5
20260507014618 61 21 1.0 2.0 0.00 0.21 0.00 88 1008.4
20260507014121 61 21 2.0 3.0 0.00 0.21 0.00 88 1008.4
20260507013618 61 61 2.0 5.0 0.00 0.22 0.00 88 1008.4
20260507013121 61 73 1.0 2.0 0.00 0.24 0.00 88 1008.4
20260507012624 62 27 1.0 3.0 0.00 0.27 0.00 87 1008.4
20260507012118 62 34 2.0 2.0 0.00 0.28 0.00 87 1008.5
20260507011621 62 21 1.0 2.0 0.00 0.29 0.00 87 1008.5
20260507011118 62 21 1.0 2.0 0.00 0.30 0.00 87 1008.5
20260507010618 62 32 0.0 2.0 0.00 0.30 0.00 87 1008.6
20260507010127 62 33 2.0 2.0 0.00 0.30 0.00 87 1008.6
20260507005618 62 33 0.0 2.0 0.00 0.31 0.00 87 1008.7
20260507005121 62 25 1.0 1.0 0.00 0.33 0.00 87 1008.7
20260507004621 62 25 1.0 3.0 0.00 0.34 0.00 86 1008.7
20260507004124 62 74 1.0 2.0 0.00 0.36 0.00 86 1008.7
20260507003624 62 5 0.0 2.0 0.00 0.36 0.00 86 1008.7
20260507003118 62 5 2.0 3.0 0.00 0.37 0.00 86 1008.6
20260507002624 62 12 1.0 2.0 0.00 0.37 0.00 86 1008.6
20260507002121 63 23 1.0 3.0 0.00 0.38 0.00 86 1008.6
20260507001618 63 347 2.0 2.0 0.00 0.38 0.00 86 1008.6
20260507001118 63 44 0.0 3.0 0.00 0.39 0.00 86 1008.6
20260507000621 63 305 2.0 3.0 0.00 0.39 0.00 86 1008.6
20260507000124 63 266 1.0 4.0 0.00 0.39 0.00 86 1008.5
20260506235621 63 287 2.0 3.0 0.00 0.39 0.00 85 1008.6
20260506235121 62 311 2.0 3.0 0.00 0.39 0.00 85 1008.6
20260506234621 62 345 2.0 3.0 0.00 0.39 0.00 85 1008.6
20260506234121 63 252 2.0 3.0 0.00 0.39 0.00 85 1008.6
20260506233621 63 295 3.0 3.0 0.00 0.39 0.00 85 1008.7
20260506233121 63 321 0.0 3.0 0.00 0.39 0.00 85 1008.7
20260506232621 63 272 0.0 4.0 0.00 0.39 0.00 85 1008.7
20260506232118 63 238 4.0 7.0 0.00 0.39 0.00 85 1008.7
20260506231627 63 235 2.0 6.0 0.00 0.39 0.00 85 1008.8
20260506231121 63 219 2.0 4.0 0.00 0.39 0.00 85 1008.7
20260506230618 63 252 2.0 4.0 0.00 0.39 0.00 85 1008.8
20260506230121 63 120 2.0 7.0 0.00 0.39 0.00 85 1008.6
20260506225618 63 221 2.0 5.0 0.00 0.39 0.00 85 1008.6
20260506225121 63 231 3.0 5.0 0.00 0.39 0.00 85 1008.6
20260506224624 63 259 1.0 3.0 0.00 0.39 0.00 85 1008.6
20260506224118 63 312 1.0 3.0 0.00 0.39 0.00 84 1008.6
20260506223618 63 238 2.0 7.0 0.00 0.39 0.00 84 1008.5
20260506223118 63 202 7.0 8.0 0.00 0.39 0.00 85 1008.5
20260506222618 63 222 2.0 5.0 0.00 0.39 0.00 84 1008.5
20260506222118 63 213 5.0 7.0 0.00 0.39 0.00 84 1008.6
20260506221618 63 243 3.0 8.0 0.00 0.39 0.00 84 1008.7
20260506221121 63 191 3.0 9.0 0.00 0.39 0.00 84 1008.8
20260506220621 63 172 2.0 7.0 0.00 0.39 0.00 84 1008.6